2014-12-07 00:03:23 r, 15.42m,0000000059Hz,0000007688c,0000000.017s, 014.5C,00002195
2014-12-07 00:13:23 r, 15.35m,0000000074Hz,0000007136c,0000000.015s, 014.1C,00002195
2014-12-07 00:23:23 r, 14.82m,0000000105Hz,0000004430c,0000000.010s, 013.8C,00002195
2014-12-07 00:33:23 r, 15.00m,0000000086Hz,0000005206c,0000000.011s, 013.8C,00002195
2014-12-07 00:43:23 r, 14.87m,0000000100Hz,0000004609c,0000000.010s, 013.5C,00002195
2014-12-07 00:53:23 r, 14.84m,0000000101Hz,0000004507c,0000000.010s, 013.5C,00002195
2014-12-07 01:03:23 r, 14.88m,0000000098Hz,0000004677c,0000000.010s, 013.2C,00002195
2014-12-07 01:13:23 r, 14.96m,0000000092Hz,0000005043c,0000000.011s, 013.2C,00002195
2014-12-07 01:23:23 r, 15.08m,0000000081Hz,0000005629c,0000000.012s, 013.2C,00002195
2014-12-07 01:33:23 r, 15.28m,0000000068Hz,0000006767c,0000000.015s, 013.2C,00002195
2014-12-07 01:43:23 r, 15.58m,0000000053Hz,0000008913c,0000000.019s, 012.8C,00002195
2014-12-07 01:53:23 r, 15.97m,0000000036Hz,0000012695c,0000000.028s, 012.8C,00002195
2014-12-07 02:03:23 r, 16.29m,0000000027Hz,0000017039c,0000000.037s, 012.8C,00002195
2014-12-07 02:13:23 r, 16.35m,0000000026Hz,0000018139c,0000000.039s, 012.8C,00002195
2014-12-07 02:23:23 r, 16.44m,0000000024Hz,0000019631c,0000000.043s, 012.8C,00002195
2014-12-07 02:33:23 r, 16.48m,0000000023Hz,0000020437c,0000000.044s, 012.8C,00002195
2014-12-07 02:43:23 r, 16.48m,0000000022Hz,0000020466c,0000000.044s, 012.8C,00002195
2014-12-07 02:53:23 r, 16.55m,0000000022Hz,0000021732c,0000000.047s, 012.8C,00002195
2014-12-07 03:03:23 r, 16.57m,0000000021Hz,0000022158c,0000000.048s, 012.8C,00002195
2014-12-07 03:13:23 r, 16.67m,0000000019Hz,0000024118c,0000000.052s, 012.8C,00002195
2014-12-07 03:23:23 r, 16.72m,0000000018Hz,0000025233c,0000000.055s, 012.8C,00002195
2014-12-07 03:33:23 r, 16.75m,0000000017Hz,0000025996c,0000000.056s, 012.8C,00002195
2014-12-07 03:43:23 r, 16.73m,0000000018Hz,0000025653c,0000000.056s, 012.8C,00002195
2014-12-07 03:53:23 r, 16.65m,0000000019Hz,0000023809c,0000000.052s, 012.8C,00002195
2014-12-07 04:03:23 r, 16.53m,0000000021Hz,0000021416c,0000000.046s, 012.8C,00002195
2014-12-07 04:13:23 r, 16.37m,0000000025Hz,0000018491c,0000000.040s, 012.8C,00002195
2014-12-07 04:23:23 r, 16.52m,0000000022Hz,0000021075c,0000000.046s, 012.8C,00002195
2014-12-07 04:33:23 r, 16.46m,0000000023Hz,0000020082c,0000000.044s, 012.8C,00002195
2014-12-07 04:43:23 r, 16.39m,0000000024Hz,0000018751c,0000000.041s, 012.8C,00002195
2014-12-07 04:53:23 r, 16.51m,0000000022Hz,0000020867c,0000000.045s, 012.8C,00002195
2014-12-07 05:03:23 r, 16.56m,0000000021Hz,0000021911c,0000000.048s, 012.8C,00002195
2014-12-07 05:13:23 r, 16.35m,0000000026Hz,0000018164c,0000000.039s, 012.8C,00002195
2014-12-07 05:23:23 r, 16.31m,0000000026Hz,0000017515c,0000000.038s, 013.2C,00002195
2014-12-07 05:33:23 r, 16.37m,0000000025Hz,0000018368c,0000000.040s, 013.2C,00002195
2014-12-07 05:43:23 r, 16.34m,0000000026Hz,0000017941c,0000000.039s, 013.5C,00002195
2014-12-07 05:53:23 r, 16.07m,0000000033Hz,0000013989c,0000000.030s, 013.5C,00002195
2014-12-07 06:03:23 r, 15.77m,0000000043Hz,0000010684c,0000000.023s, 013.8C,00002195
2014-12-07 06:13:23 r, 15.88m,0000000039Hz,0000011687c,0000000.025s, 013.8C,00002195
2014-12-07 06:23:23 r, 15.81m,0000000042Hz,0000010964c,0000000.024s, 014.1C,00002195
2014-12-07 06:33:23 r, 15.57m,0000000051Hz,0000008838c,0000000.019s, 014.1C,00002195
2014-12-07 06:43:23 r, 15.84m,0000000042Hz,0000011265c,0000000.024s, 014.5C,00002195
2014-12-07 06:53:23 r, 15.56m,0000000052Hz,0000008713c,0000000.019s, 014.5C,00002195
2014-12-07 07:03:23 r, 16.50m,0000000022Hz,0000020850c,0000000.045s, 014.8C,00002195
2014-12-07 07:13:23 r, 16.29m,0000000026Hz,0000017192c,0000000.037s, 014.8C,00002195
2014-12-07 07:23:23 r, 15.17m,0000000075Hz,0000006068c,0000000.013s, 014.8C,00002195
2014-12-07 07:33:23 r, 13.44m,0000000374Hz,0000000000c,0000000.000s, 014.5C,00002195
2014-12-07 07:43:23 r, 11.51m,0000002236Hz,0000000000c,0000000.000s, 014.5C,00002195
2014-12-07 07:53:23 r, 09.69m,0000011806Hz,0000000000c,0000000.000s, 014.5C,00002195
2014-12-07 08:03:23 r, 08.30m,0000042774Hz,0000000000c,0000000.000s, 014.5C,00002195
2014-12-07 08:13:23 r, 07.31m,0000105898Hz,0000000000c,0000000.000s, 014.5C,00002195
2014-12-07 08:23:23 r, 06.57m,0000210283Hz,0000000000c,0000000.000s, 014.5C,00002195
2014-12-07 08:33:23 r, 06.05m,0000339265Hz,0000000000c,0000000.000s, 014.8C,00002195
2014-12-07 08:43:23 r, 00.00m,0000537107Hz,0000000000c,0000000.000s, 015.1C,00002195
2014-12-07 08:53:23 r, 00.00m,0000562621Hz,0000000000c,0000000.000s, 015.7C,00002195
2014-12-07 09:03:23 r, 00.00m,0000562711Hz,0000000000c,0000000.000s, 016.1C,00002195
2014-12-07 09:13:23 r, 00.00m,0000562735Hz,0000000000c,0000000.000s, 016.4C,00002195
2014-12-07 09:23:23 r, 00.00m,0000562796Hz,0000000000c,0000000.000s, 016.7C,00002195
2014-12-07 09:33:23 r, 00.00m,0000562897Hz,0000000000c,0000000.000s, 017.0C,00002195
2014-12-07 09:43:23 r, 00.00m,0000562822Hz,0000000000c,0000000.000s, 017.4C,00002195
2014-12-07 09:53:23 r, 00.00m,0000562939Hz,0000000000c,0000000.000s, 017.7C,00002195
2014-12-07 10:03:23 r, 00.00m,0000562971Hz,0000000000c,0000000.000s, 017.7C,00002195
2014-12-07 10:13:23 r, 00.00m,0000562957Hz,0000000000c,0000000.000s, 018.0C,00002195
2014-12-07 10:23:23 r, 00.00m,0000562950Hz,0000000000c,0000000.000s, 018.3C,00002195
2014-12-07 10:33:23 r, 00.00m,0000562940Hz,0000000000c,0000000.000s, 018.6C,00002195
2014-12-07 10:43:23 r, 00.00m,0000563034Hz,0000000000c,0000000.000s, 018.6C,00002195
2014-12-07 10:53:23 r, 00.00m,0000563051Hz,0000000000c,0000000.000s, 019.0C,00002195
2014-12-07 11:03:23 r, 00.00m,0000563151Hz,0000000000c,0000000.000s, 019.3C,00002195
2014-12-07 11:13:23 r, 00.00m,0000563139Hz,0000000000c,0000000.000s, 019.3C,00002195
2014-12-07 11:23:23 r, 00.00m,0000563086Hz,0000000000c,0000000.000s, 019.6C,00002195
2014-12-07 11:33:23 r, 00.00m,0000563094Hz,0000000000c,0000000.000s, 019.6C,00002195
2014-12-07 11:43:23 r, 00.00m,0000563161Hz,0000000000c,0000000.000s, 019.9C,00002195
2014-12-07 11:53:23 r, 00.00m,0000563238Hz,0000000000c,0000000.000s, 020.3C,00002195
2014-12-07 12:03:23 r, 00.00m,0000563327Hz,0000000000c,0000000.000s, 020.6C,00002195
2014-12-07 12:13:23 r, 00.00m,0000563310Hz,0000000000c,0000000.000s, 020.6C,00002195
2014-12-07 12:23:23 r, 00.00m,0000563298Hz,0000000000c,0000000.000s, 020.9C,00002195
2014-12-07 12:33:23 r, 00.00m,0000563303Hz,0000000000c,0000000.000s, 021.2C,00002195
2014-12-07 12:43:23 r, 00.00m,0000563345Hz,0000000000c,0000000.000s, 020.9C,00002195
2014-12-07 12:53:23 r, 00.00m,0000563223Hz,0000000000c,0000000.000s, 020.6C,00002195
2014-12-07 13:03:23 r, 00.00m,0000563233Hz,0000000000c,0000000.000s, 020.6C,00002195
2014-12-07 13:13:23 r, 00.00m,0000563186Hz,0000000000c,0000000.000s, 020.3C,00002195
2014-12-07 13:23:23 r, 00.00m,0000563211Hz,0000000000c,0000000.000s, 020.3C,00002195
2014-12-07 13:33:23 r, 00.00m,0000563234Hz,0000000000c,0000000.000s, 020.6C,00002195
2014-12-07 13:43:23 r, 00.00m,0000563257Hz,0000000000c,0000000.000s, 020.9C,00002195
2014-12-07 13:53:23 r, 00.00m,0000563261Hz,0000000000c,0000000.000s, 021.2C,00002195
2014-12-07 14:03:23 r, 00.00m,0000563303Hz,0000000000c,0000000.000s, 020.9C,00002195
2014-12-07 14:13:23 r, 00.00m,0000563222Hz,0000000000c,0000000.000s, 020.6C,00002195
2014-12-07 14:23:23 r, 00.00m,0000563296Hz,0000000000c,0000000.000s, 020.6C,00002195
2014-12-07 14:33:23 r, 00.00m,0000563204Hz,0000000000c,0000000.000s, 020.9C,00002195
2014-12-07 14:43:23 r, 00.00m,0000563325Hz,0000000000c,0000000.000s, 020.9C,00002195
2014-12-07 14:53:23 r, 00.00m,0000563243Hz,0000000000c,0000000.000s, 020.9C,00002195
2014-12-07 15:03:23 r, 00.00m,0000563179Hz,0000000000c,0000000.000s, 020.6C,00002195
2014-12-07 15:13:23 r, 00.00m,0000563166Hz,0000000000c,0000000.000s, 020.3C,00002195
2014-12-07 15:23:23 r, 00.00m,0000563003Hz,0000000000c,0000000.000s, 019.6C,00002195
2014-12-07 15:33:23 r, 00.00m,0000563046Hz,0000000000c,0000000.000s, 019.6C,00002195
2014-12-07 15:43:23 r, 00.00m,0000563031Hz,0000000000c,0000000.000s, 019.3C,00002195
2014-12-07 15:53:23 r, 00.00m,0000511227Hz,0000000000c,0000000.000s, 019.3C,00002195
2014-12-07 16:03:23 r, 00.00m,0000471389Hz,0000000000c,0000000.000s, 019.3C,00002195
2014-12-07 16:13:23 r, 06.31m,0000266820Hz,0000000000c,0000000.000s, 019.3C,00002195
2014-12-07 16:23:23 r, 07.03m,0000137700Hz,0000000000c,0000000.000s, 019.3C,00002195
2014-12-07 16:33:23 r, 07.99m,0000056352Hz,0000000000c,0000000.000s, 019.0C,00002195
2014-12-07 16:43:23 r, 09.31m,0000016868Hz,0000000000c,0000000.000s, 019.0C,00002195
2014-12-07 16:53:23 r, 10.90m,0000003882Hz,0000000000c,0000000.000s, 018.6C,00002195
2014-12-07 17:03:23 r, 12.67m,0000000756Hz,0000000000c,0000000.000s, 018.6C,00002195
2014-12-07 17:13:23 r, 13.81m,0000000267Hz,0000000000c,0000000.000s, 018.6C,00002195
2014-12-07 17:23:23 r, 14.10m,0000000204Hz,0000000000c,0000000.000s, 018.6C,00002195
2014-12-07 17:33:23 r, 14.10m,0000000203Hz,0000000000c,0000000.000s, 018.6C,00002195
2014-12-07 17:43:23 r, 14.06m,0000000211Hz,0000000000c,0000000.000s, 019.0C,00002195
2014-12-07 17:53:23 r, 14.03m,0000000216Hz,0000000000c,0000000.000s, 019.0C,00002195
2014-12-07 18:03:23 r, 14.06m,0000000212Hz,0000000000c,0000000.000s, 019.0C,00002195
2014-12-07 18:13:23 r, 14.18m,0000000188Hz,0000000000c,0000000.000s, 019.3C,00002195
2014-12-07 18:23:23 r, 14.15m,0000000195Hz,0000000000c,0000000.000s, 019.0C,00002195
2014-12-07 18:33:23 r, 14.56m,0000000134Hz,0000000000c,0000000.000s, 018.3C,00002195
2014-12-07 18:43:23 r, 14.26m,0000000175Hz,0000000000c,0000000.000s, 018.0C,00002195
2014-12-07 18:53:23 r, 14.53m,0000000137Hz,0000000000c,0000000.000s, 017.7C,00002195
2014-12-07 19:03:23 r, 14.36m,0000000161Hz,0000000000c,0000000.000s, 017.0C,00002195
2014-12-07 19:13:23 r, 14.57m,0000000132Hz,0000000000c,0000000.000s, 016.7C,00002195
2014-12-07 19:23:23 r, 14.79m,0000000106Hz,0000004301c,0000000.009s, 016.4C,00002195
2014-12-07 19:33:23 r, 14.84m,0000000103Hz,0000004487c,0000000.010s, 016.1C,00002195
2014-12-07 19:43:23 r, 15.14m,0000000077Hz,0000005921c,0000000.013s, 015.7C,00002195
2014-12-07 19:53:23 r, 14.48m,0000000143Hz,0000000000c,0000000.000s, 015.4C,00002195
2014-12-07 20:03:23 r, 14.65m,0000000122Hz,0000003778c,0000000.008s, 015.4C,00002195
2014-12-07 20:13:23 r, 15.00m,0000000088Hz,0000005203c,0000000.011s, 015.1C,00002195
2014-12-07 20:23:23 r, 15.49m,0000000057Hz,0000008124c,0000000.018s, 015.1C,00002195
2014-12-07 20:33:23 r, 15.38m,0000000063Hz,0000007340c,0000000.016s, 015.1C,00002195
2014-12-07 20:43:23 r, 15.00m,0000000087Hz,0000005240c,0000000.011s, 014.8C,00002195
2014-12-07 20:53:23 r, 15.40m,0000000062Hz,0000007526c,0000000.016s, 014.5C,00002195
2014-12-07 21:03:23 r, 14.77m,0000000107Hz,0000004238c,0000000.009s, 014.1C,00002195
2014-12-07 21:13:23 r, 14.52m,0000000139Hz,0000000000c,0000000.000s, 013.8C,00002195
2014-12-07 21:23:23 r, 14.73m,0000000113Hz,0000004054c,0000000.009s, 013.8C,00002195
2014-12-07 21:33:23 r, 14.69m,0000000118Hz,0000003924c,0000000.009s, 013.8C,00002195
2014-12-07 21:43:23 r, 14.56m,0000000133Hz,0000000000c,0000000.000s, 013.8C,00002195
2014-12-07 21:53:23 r, 14.74m,0000000112Hz,0000004087c,0000000.009s, 013.8C,00002195
2014-12-07 22:03:23 r, 14.38m,0000000158Hz,0000000000c,0000000.000s, 013.8C,00002195
2014-12-07 22:13:23 r, 14.35m,0000000162Hz,0000000000c,0000000.000s, 013.8C,00002195
2014-12-07 22:23:23 r, 14.21m,0000000184Hz,0000000000c,0000000.000s, 013.8C,00002195
2014-12-07 22:33:23 r, 14.10m,0000000204Hz,0000000000c,0000000.000s, 013.8C,00002195
2014-12-07 22:43:23 r, 14.05m,0000000214Hz,0000000000c,0000000.000s, 013.5C,00002195
2014-12-07 22:53:23 r, 13.96m,0000000232Hz,0000000000c,0000000.000s, 013.5C,00002195
2014-12-07 23:03:23 r, 14.08m,0000000208Hz,0000000000c,0000000.000s, 013.2C,00002195
2014-12-07 23:13:23 r, 14.03m,0000000216Hz,0000000000c,0000000.000s, 013.2C,00002195
2014-12-07 23:23:23 r, 14.12m,0000000200Hz,0000000000c,0000000.000s, 013.2C,00002195
2014-12-07 23:33:23 r, 14.38m,0000000158Hz,0000000000c,0000000.000s, 013.2C,00002195
2014-12-07 23:43:23 r, 14.54m,0000000136Hz,0000000000c,0000000.000s, 013.2C,00002195
2014-12-07 23:53:23 r, 14.50m,0000000141Hz,0000000000c,0000000.000s, 012.8C,00002195
